CZ-6A DEB, 56239

Orbit data source: Space-Track

CZ-6A DEB, 56239 is space debris in SSO originally from a launch on Fri, 11 Nov 2022 UTC launched from the Taiyaun Space Center, China (TSC). Debris objects in space refer to the collection of defunct objects orbiting the Earth. Examples of debris include non-operational satellites, rocket bodies, and fragments generated from explosions, collisions, or faulty payload assembly.

Loading next visibility...
Identifier
56239, 2022-151ABF
Orbit
SSO
Country
Flag of CNCN / PRC
Related business
Manufacturer
SAST
Mission
Spacecraft
Bus & Motor
Unknown
Mass
Unknown
Launch date (UTC)
2022-11-11 (4 years ago)
Launch vehicle
Unknown
Launch site
Taiyaun Space Center, China (TSC)
Object type
Payload
Rocket body
Debris
Shape & HBR
Unknown shape, 0.1 m
Radar Cross Section
Small (<0.1 m²)

Expand to show TLE details & history
Last TLE update: 3 days ago

TLE from 3 days ago
0 CZ-6A DEB
1 56239U 22151ABF 26170.47696158  .00003221  00000-0  11087-2 0  9995
2 56239  98.6824 188.6371 0067604 110.0862 250.7615 14.35359184174583
Epoch: 2026-06-19T11:26Z
TLE epoch observation values (Epoch: 2026-06-19T11:26:49.480Z)
Latitude
-0.00005°
Longitude
109.22556°
Altitude
793.035 km
Speed
7.449 km/s
True Right ascension
12h 34m 32s
True Declination
0° 00' 00"
Sunlit
Object was in daylight at epoch
Visualization orbit readout
Latitude
Unknown
Longitude
Unknown
Altitude
Unknown
Speed
Unknown
Apparent Right ascension
Unknown
Apparent Declination
Unknown
Sunlit
N/A
Visualization observer readout
Local Sidereal Time
23:18:52
Azimuth
Unknown
Elevation
Unknown
Doppler factor
Unknown
Orbital elements
Apogee altitude
819.341 km
Perigee altitude
722.678 km
Semi-major axis
7,149.147 km
Eccentricity
0.00676
Inclination
98.6824°
RAAN
188.6371°
Arg. of periapsis
110.0862°
True anomaly
250.03213°
Mean anomaly
250.7615°
Eccentric anomaly
250.39661°
Mean motion
3.59056 °/min
Orbital period
100.26 mins
BSTAR
0.0011087
Loading maneuver chart data...
Computing Atmospheric mass density...
Loading historical data...
Loading historical data...
Loading historical data...
Loading historical data...
Loading historical data...
Loading historical data...
Loading historical data...

Documentation

Showing up to 5 results
|